Regional Weather Roundup
Issued by NWS

Home | Current Version | Previous Version | Text Only | Print | Product List | Glossary Off
Versions: 1 2 3 4 5 6 7 8 9 10 11 12 13 14 15 16 17 18 19 20 21 22 23 24 25 26 27 28 29 30 31 32 33 34 35 36 37 38 39 40 41 42 43 44 45 46 47 48 49 50

000
ASUS43 KIND 181159
RWRIN

WEATHER ROUNDUP FOR INDIANA
NATIONAL WEATHER SERVICE INDIANAPOLIS IN
700 AM EST THU DEC 18 2014

NOTE: "FAIR" INDICATES FEW OR NO CLOUDS BELOW 12,000 FEET WITH NO
SIGNIFICANT WEATHER AND/OR OBSTRUCTIONS TO VISIBILITY.

* - STATION DOES NOT REPORT WEATHER SUCH AS PRECIPITATION OR FOG.

+ - STATION NOT QUALITY CONTROLLED BY THE NATIONAL WEATHER SERVICE.
    USE DATA WITH CAUTION...ESPECIALLY DEWPOINT AND RELATIVE
    HUMIDITY OBSERVATIONS.

INZ001>003-010>013-019-020-181300-
NORTHWEST INDIANA

CITY           SKY/WX    TMP DP  RH WIND       PRES   REMARKS
GARY /AIRPORT/ CLOUDY    27  18  69 W9        30.28S WCI  17
VALPARAISO     NOT AVBL

$$

LMZ046-743>745-181300-
SOUTHERN LAKE MICHIGAN

STATION/POSITION TIME  TEMP WIND        PRES
                       AIR  DIR/SP/G
                 (UTC) (F)  (DEG/KT/KT) (MB)

$$

INZ004-005-014>016-021>024-181300-
NORTH CENTRAL INDIANA

CITY           SKY/WX    TMP DP  RH WIND       PRES   REMARKS
ELKHART        CLOUDY    28  21  74 W3        30.24
GOSHEN         CLOUDY    27  21  78 W5        30.23S WCI  22
6HR MIN TEMP:  27; 6HR MAX TEMP:  27;

SOUTH BEND     CLOUDY    28  21  75 W5        30.24F WCI  23
6HR MIN TEMP:  28; 6HR MAX TEMP:  29;


$$

INZ006>009-017-018-025>027-181300-
NORTHEAST INDIANA

CITY           SKY/WX    TMP DP  RH WIND       PRES   REMARKS
ANGOLA *+      CLOUDY    27  21  80 W5        30.21R WCI  21
FORT WAYNE     CLOUDY    27  21  78 CALM      30.24F
6HR MIN TEMP:  27; 6HR MAX TEMP:  27;


$$

INZ028-029-035-036-043>045-051>053-181300-
WEST CENTRAL INDIANA

CITY           SKY/WX    TMP DP  RH WIND       PRES   REMARKS
GREENCASTLE +  CLOUDY    25  18  74 CALM      30.28S
LAFAYETTE      CLOUDY    24  17  74 CALM      30.29R
6HR MIN TEMP:  24; 6HR MAX TEMP:  25;

TERRE HAUTE    CLOUDY    25  18  74 CALM      30.30R
6HR MIN TEMP:  25; 6HR MAX TEMP:  26;


$$

INZ030>032-037>040-046>048-054>057-064-065-181300-
CENTRAL INDIANA

CITY           SKY/WX    TMP DP  RH WIND       PRES   REMARKS
INDIANAPOLIS   CLOUDY    25  18  74 CALM      30.26R
6HR MIN TEMP:  24; 6HR MAX TEMP:  25;

-EAGLE CREEK   CLOUDY    25  18  74 CALM      30.27R
6HR MIN TEMP:  24; 6HR MAX TEMP:  25;

KOKOMO *+      CLOUDY    27  18  69 W5        30.27R WCI  21
MT COMFORT *+  CLOUDY    25  16  68 CALM      30.27R
SHELBYVILLE    CLOUDY    27  19  72 CALM      30.27R
6HR MIN TEMP:  26; 6HR MAX TEMP:  27;


$$

INZ033-034-041-042-049-050-058-059-181300-
EAST CENTRAL INDIANA

CITY           SKY/WX    TMP DP  RH WIND       PRES   REMARKS
MUNCIE         CLOUDY    26  18  71 CALM      30.23F
6HR MIN TEMP:  25; 6HR MAX TEMP:  26;


$$

INZ060-061-067>069-081>083-085>088-181300-
SOUTHWEST INDIANA

CITY           SKY/WX    TMP DP  RH WIND       PRES   REMARKS
EVANSVILLE     CLOUDY    30  24  78 NE5       30.28S WCI  25
6HR MIN TEMP:  30; 6HR MAX TEMP:  31;

HUNTINGBURG *+ CLOUDY    28  21  74 NE3       30.28S
6HR MIN TEMP:  27; 6HR MAX TEMP:  28;


$$

INZ062-063-066-070>080-084-089>092-181300-
SOUTH CENTRAL AND SOUTHEAST INDIANA

CITY           SKY/WX    TMP DP  RH WIND       PRES   REMARKS
BLOOMINGTON    CLOUDY    25  20  81 E3        30.27R
6HR MIN TEMP:  24; 6HR MAX TEMP:  25;


$$



USA.gov is the U.S. government's official web portal to all federal, state and local government web resources and services.